El Dorado, AR

12:26 PM CDT on May 28, 2017 (GMT -0500)
South Arkansas Regional At Goodwin

Weather History for KELD - May, 2013

Change the Weather History Date:

Friday, May 17, 2013

  Actual Average Record
Temperature  
Mean Temperature 75 °F 72 °F  
Max Temperature 82 °F 83 °F 91 °F (1943)
Min Temperature 67 °F 61 °F 43 °F (2011)
Degree Days  
Heating Degree Days 0 0  
Month to date heating degree days 61 16  
Since 1 July heating degree days 2712 2670  
Cooling Degree Days 10 7  
Month to date cooling degree days 39 92  
Year to date cooling degree days 118 191  
Growing Degree Days 24 (Base 50)    
Moisture  
Dew Point 69 °F    
Average Humidity 85    
Maximum Humidity 100    
Minimum Humidity 69    
Precipitation  
Precipitation T in 0.16 in 5.20 in (1930)
Month to date precipitation 1.67 2.80  
Year to date precipitation 15.70 20.73  
Snow  
Snow 0.00 in - - ()
Month to date snowfall 0.0  
Since 1 July snowfall 0.1  
Snow Depth 0.00 in    
Sea Level Pressure  
Sea Level Pressure 29.90 in    
Wind  
Wind Speed 5 mph (South)    
Max Wind Speed 12 mph    
Max Gust Speed 14 mph    
Visibility 8 miles    
Events Rain , Thunderstorm    
T = Trace of Precipitation, MM = Missing Value Source: NWS Daily Summary

Daily Weather History Graph

Daily Weather History Graph

Search for Another Location

Airport or City:

Trip Planner

Search our weather history database for the weather conditions in past years. The results will help you decide how hot, cold, wet, or windy it might be!

Date:

Astronomy

May. 17, 2013 Rise Set
Actual Time 6:09 AM CDT 8:05 PM CDT
Civil Twilight 5:42 AM CDT 8:33 PM CDT
Nautical Twilight 5:09 AM CDT 9:06 PM CDT
Astronomical Twilight 4:33 AM CDT 9:42 PM CDT
Moon 12:34 PM CDT (5/17) 1:06 AM CDT (5/17)
Length of Visible Light 14h 50m
Length of Day
13h 55m
Waxing Crescent, 45% of the Moon is Illuminated
May 17
Waxing Crescent
May 17
First Quarter
May 24
Full
May 31
Last Quarter
Jun 8
New

Hourly Weather History & Observations

Time (CDT) Temp. Heat Index Dew Point Humidity Pressure Visibility Wind Dir Wind Speed Gust Speed Precip Events Conditions
12:06 AM 69.8 °F - 69.8 °F 100% 29.86 in 8.0 mi South 3.5 mph - N/A   Overcast
12:53 AM 69.1 °F - 68.0 °F 96% 29.86 in 8.0 mi SSW 3.5 mph - N/A   Overcast
1:53 AM 69.1 °F - 66.9 °F 93% 29.85 in 10.0 mi South 6.9 mph - N/A   Overcast
2:31 AM 69.8 °F - 66.2 °F 88% 29.85 in 10.0 mi South 6.9 mph - N/A   Overcast
2:53 AM 68.0 °F - 66.9 °F 96% 29.84 in 9.0 mi South 4.6 mph - N/A   Overcast
3:53 AM 66.9 °F - 66.0 °F 97% 29.84 in 8.0 mi South 5.8 mph - N/A   Overcast
4:14 AM 66.2 °F - 66.2 °F 100% 29.86 in 7.0 mi South 3.5 mph - N/A   Overcast
4:37 AM 66.2 °F - 66.2 °F 100% 29.86 in 7.0 mi South 4.6 mph - N/A   Overcast
4:53 AM 68.0 °F - 66.9 °F 96% 29.86 in 8.0 mi South 4.6 mph - N/A   Overcast
5:53 AM 68.0 °F - 66.9 °F 96% 29.88 in 7.0 mi South 5.8 mph - N/A   Overcast
6:53 AM 68.0 °F - 66.9 °F 96% 29.90 in 6.0 mi South 4.6 mph - N/A   Overcast
7:07 AM 69.8 °F - 66.2 °F 88% 29.91 in 6.0 mi South 4.6 mph - N/A   Overcast
7:19 AM 69.8 °F - 66.2 °F 88% 29.91 in 6.0 mi South 5.8 mph - N/A   Overcast
7:53 AM 69.1 °F - 68.0 °F 96% 29.92 in 6.0 mi South 5.8 mph - N/A   Overcast
8:53 AM 71.1 °F - 69.1 °F 93% 29.93 in 6.0 mi South 6.9 mph - N/A   Overcast
9:53 AM 72.0 °F - 69.1 °F 91% 29.94 in 6.0 mi SSW 6.9 mph - N/A   Overcast
10:53 AM 73.0 °F - 70.0 °F 90% 29.95 in 7.0 mi SSW 8.1 mph - 0.01 in   Overcast
11:53 AM 75.0 °F - 70.0 °F 84% 29.96 in 7.0 mi SW 5.8 mph - N/A   Overcast
12:12 PM 75.2 °F - 69.8 °F 83% 29.95 in 8.0 mi SSW 6.9 mph - N/A   Overcast
12:53 PM 77.0 °F - 71.1 °F 82% 29.94 in 8.0 mi SSE 5.8 mph - N/A   Overcast
1:53 PM 78.8 °F - 71.6 °F 78% 29.93 in 9.0 mi Variable 3.5 mph - N/A   Overcast
2:09 PM 80.6 °F 84.6 °F 71.6 °F 74% 29.93 in 9.0 mi SSE 4.6 mph - N/A   Mostly Cloudy
2:53 PM 80.1 °F 83.6 °F 71.1 °F 74% 29.91 in 9.0 mi South 4.6 mph - N/A   Overcast
3:35 PM 78.8 °F - 69.8 °F 74% 29.91 in 9.0 mi South 6.9 mph - 0.00 in Rain , Thunderstorm Light Rain
3:50 PM 80.6 °F 84.6 °F 71.6 °F 74% 29.92 in 9.0 mi South 5.8 mph - 0.00 in   Mostly Cloudy
3:53 PM 80.1 °F 83.6 °F 71.1 °F 74% 29.92 in 9.0 mi SSW 5.8 mph - 0.00 in   Mostly Cloudy
4:01 PM 78.8 °F - 69.8 °F 74% 29.92 in 9.0 mi South 4.6 mph - N/A Thunderstorm Mostly Cloudy
4:38 PM 80.6 °F 84.6 °F 71.6 °F 74% 29.90 in 9.0 mi SE 4.6 mph - N/A   Mostly Cloudy
4:53 PM 81.0 °F 84.9 °F 71.1 °F 72% 29.88 in 9.0 mi Calm Calm - N/A   Partly Cloudy
5:53 PM 82.0 °F 86.3 °F 71.1 °F 69% 29.88 in 9.0 mi SE 4.6 mph - N/A   Scattered Clouds
6:53 PM 81.0 °F 85.2 °F 72.0 °F 74% 29.88 in 8.0 mi East 4.6 mph - N/A   Overcast
7:53 PM 75.9 °F - 73.9 °F 94% 29.88 in 5.0 mi NE 3.5 mph - N/A   Overcast
8:53 PM 73.9 °F - 73.0 °F 97% 29.90 in 5.0 mi ENE 4.6 mph - N/A   Overcast
9:53 PM 73.9 °F - 72.0 °F 93% 29.91 in 6.0 mi Calm Calm - N/A   Overcast
10:53 PM 73.0 °F - 71.1 °F 93% 29.93 in 6.0 mi ENE 3.5 mph - N/A   Overcast
11:53 PM 73.9 °F - 72.0 °F 93% 29.92 in 6.0 mi SE 3.5 mph - N/A   Overcast